Makassar, Indonesia

8:06 PM WITA on March 25, 2017 (GMT +0800)
Hasanuddin

Weather History for WAAA - February, 2014

Change the Weather History Date:

Saturday, February 8, 2014

  Actual Average Record
Temperature  
Mean Temperature 82 °F -  
Max Temperature 89 °F - - ()
Min Temperature 76 °F - - ()
Cooling Degree Days 18    
Growing Degree Days 32 (Base 50)    
Moisture  
Dew Point 77 °F    
Average Humidity 87    
Maximum Humidity 100    
Minimum Humidity 61    
Precipitation  
Precipitation 0.01 in - - ()
Sea Level Pressure  
Sea Level Pressure 29.71 in    
Wind  
Wind Speed 3 mph ()    
Max Wind Speed 12 mph    
Max Gust Speed -    
Visibility 5.4 miles    
Events Rain    
T = Trace of Precipitation, MM = Missing Value Source: Averaged Metar Reports

Daily Weather History Graph

Daily Weather History Graph

Search for Another Location

Airport or City:

Trip Planner

Search our weather history database for the weather conditions in past years. The results will help you decide how hot, cold, wet, or windy it might be!

Date:

Astronomy

Feb. 08, 2014 Rise Set
Actual Time 6:07 AM WITA 6:24 PM WITA
Civil Twilight 5:45 AM WITA 6:46 PM WITA
Nautical Twilight 5:20 AM WITA 7:11 PM WITA
Astronomical Twilight 4:55 AM WITA 7:36 PM WITA
Moon 1:11 PM WITA (2/8) 12:32 AM WITA (2/8)
Length of Visible Light 13h 00m
Length of Day
12h 17m
Waxing Gibbous, 63% of the Moon is Illuminated
Feb 8
Waxing Gibbous
Feb 15
Full
Feb 23
Last Quarter
Mar 1
New
Mar 8
First Quarter

Hourly Weather History & Observations

Time (WITA) Temp. Heat Index Dew Point Humidity Pressure Visibility Wind Dir Wind Speed Gust Speed Precip Events Conditions
12:00 AM 77.0 °F - 75.2 °F 94% 29.74 in 5.0 mi North 1.2 mph - N/A   Scattered Clouds
12:30 AM 77.0 °F - 77.0 °F 100% 29.71 in 5.0 mi ENE 2.3 mph - N/A   Scattered Clouds
1:00 AM 77.0 °F - 77.0 °F 100% 29.71 in 5.0 mi East 2.3 mph - N/A   Scattered Clouds
1:30 AM 77.0 °F - 77.0 °F 100% 29.71 in 5.0 mi SE 3.5 mph - N/A   Partly Cloudy
2:00 AM 77 °F - 76 °F 97% 29.71 in 5 mi SE 3.5 mph - -   Partly Cloudy
2:00 AM 77.0 °F - 77.0 °F 100% 29.71 in 5.0 mi SE 3.5 mph - N/A   Partly Cloudy
2:30 AM 77.0 °F - 77.0 °F 100% 29.71 in 5.0 mi SE 2.3 mph - N/A   Partly Cloudy
3:00 AM 77.0 °F - 75.2 °F 94% 29.68 in 5.0 mi NE 1.2 mph - N/A   Partly Cloudy
3:30 AM 77.0 °F - 77.0 °F 100% 29.68 in 5.0 mi NE 3.5 mph - N/A   Partly Cloudy
4:00 AM 77.0 °F - 75.2 °F 94% 29.68 in 5.0 mi East 1.2 mph - N/A   Partly Cloudy
4:30 AM 77.0 °F - 77.0 °F 100% 29.68 in 5.0 mi East 1.2 mph - N/A   Partly Cloudy
5:00 AM 77 °F - 76 °F 96% 29.72 in 5 mi East 1.2 mph - -   Scattered Clouds
5:00 AM 77.0 °F - 77.0 °F 100% 29.71 in 5.0 mi East 1.2 mph - N/A   Partly Cloudy
5:30 AM 77.0 °F - 77.0 °F 100% 29.71 in 5.0 mi East 1.2 mph - N/A   Partly Cloudy
6:00 AM 77.0 °F - 75.2 °F 94% 29.71 in 5.6 mi East 1.2 mph - N/A   Partly Cloudy
6:30 AM 77.0 °F - 75.2 °F 94% 29.74 in 5.6 mi East 2.3 mph - N/A   Partly Cloudy
7:00 AM 77.0 °F - 75.2 °F 94% 29.74 in 5.6 mi ESE 2.3 mph - N/A   Scattered Clouds
7:30 AM 78.8 °F - 77.0 °F 94% 29.74 in 5.6 mi NE 2.3 mph - N/A   Partly Cloudy
8:00 AM 82 °F - 76 °F 79% 29.77 in 6 mi ENE 2.3 mph - -   Scattered Clouds
8:00 AM 80.6 °F 87.1 °F 77.0 °F 89% 29.77 in 5.6 mi East 2.3 mph - N/A   Partly Cloudy
8:30 AM 82.4 °F 90.9 °F 77.0 °F 84% 29.77 in 6.2 mi East 3.5 mph - N/A   Partly Cloudy
9:00 AM 84.2 °F 94.1 °F 77.0 °F 79% 29.74 in 6.2 mi East 4.6 mph - N/A   Partly Cloudy
9:30 AM 86.0 °F 99.3 °F 78.8 °F 79% 29.74 in 6.2 mi NE 4.6 mph - N/A   Scattered Clouds
10:00 AM 87.8 °F 102.5 °F 78.8 °F 75% 29.74 in 6.2 mi ENE 1.2 mph - N/A   Scattered Clouds
10:30 AM 87.8 °F 99.7 °F 77.0 °F 70% 29.74 in 6.2 mi North 8.1 mph - N/A   Scattered Clouds
11:00 AM 89 °F - 77 °F 61% 29.75 in 6 mi WNW 6.9 mph - -   Partly Cloudy
11:00 AM 87.8 °F 99.7 °F 77.0 °F 70% 29.74 in 6.2 mi NW 6.9 mph - N/A   Scattered Clouds
11:30 AM 87.8 °F 99.7 °F 77.0 °F 70% 29.74 in 6.2 mi NW 6.9 mph - N/A   Scattered Clouds
12:00 PM 87.8 °F 99.7 °F 77.0 °F 70% 29.74 in 6.2 mi WNW 10.4 mph - N/A   Scattered Clouds
12:30 PM 87.8 °F 99.7 °F 77.0 °F 70% 29.71 in 6.2 mi NNW 10.4 mph - N/A   Scattered Clouds
1:00 PM 87.8 °F 99.7 °F 77.0 °F 70% 29.71 in 6.2 mi NW 11.5 mph - N/A   Scattered Clouds
1:30 PM 87.8 °F 102.5 °F 78.8 °F 75% 29.68 in 6.2 mi WNW 10.4 mph - N/A   Scattered Clouds
2:00 PM 86 °F - 78 °F 70% 29.69 in 6 mi NW 10.4 mph - -   Mostly Cloudy
2:00 PM 86.0 °F 96.9 °F 77.0 °F 74% 29.68 in 6.2 mi NW 10.4 mph - N/A   Mostly Cloudy
2:30 PM 87.8 °F 99.7 °F 77.0 °F 70% 29.68 in 5.6 mi NW 6.9 mph - N/A   Mostly Cloudy
2:35 PM 86.0 °F 99.3 °F 78.8 °F 79% 29.65 in 4.3 mi NW 6.9 mph - N/A Rain Light Rain
2:50 PM 84.2 °F 96.1 °F 78.8 °F 84% 29.65 in 5.6 mi WNW 10.4 mph - N/A   Mostly Cloudy
3:00 PM 86.0 °F 96.9 °F 77.0 °F 74% 29.65 in 5.6 mi West 11.5 mph - N/A   Mostly Cloudy
3:30 PM 86.0 °F 96.9 °F 77.0 °F 74% 29.65 in 5.6 mi NW 5.8 mph - N/A   Scattered Clouds
4:00 PM 86.0 °F 96.9 °F 77.0 °F 74% 29.65 in 5.6 mi WNW 8.1 mph - N/A   Mostly Cloudy
4:11 PM 84.2 °F 94.1 °F 77.0 °F 79% 29.65 in 4.3 mi WNW 10.4 mph - N/A Rain Light Rain
4:30 PM 80.6 °F 87.1 °F 77.0 °F 89% 29.65 in 4.3 mi WSW 2.3 mph - N/A Rain Light Rain
5:00 PM 79 °F - 77 °F 92% 29.74 in 5 mi East 3.5 mph - -   Partly Cloudy
5:00 PM 82.4 °F 90.9 °F 77.0 °F 84% 29.65 in 5.0 mi South 3.5 mph - N/A   Partly Cloudy
5:30 PM 82.4 °F 90.9 °F 77.0 °F 84% 29.68 in 5.6 mi South 3.5 mph - N/A   Partly Cloudy
6:00 PM 82.4 °F 92.4 °F 78.8 °F 89% 29.68 in 6.2 mi SE 2.3 mph - N/A   Partly Cloudy
6:30 PM 80.6 °F 88.1 °F 78.8 °F 94% 29.68 in 5.6 mi SE 3.5 mph - N/A   Partly Cloudy
7:00 PM 80.6 °F 87.1 °F 77.0 °F 89% 29.71 in 5.0 mi ESE 3.5 mph - N/A   Partly Cloudy
7:30 PM 78.8 °F - 77.0 °F 94% 29.71 in 5.0 mi SE 3.5 mph - N/A   Partly Cloudy
8:00 PM 79 °F - 77 °F 92% 29.74 in 5 mi East 3.5 mph - -   Partly Cloudy
8:00 PM 78.8 °F - 77.0 °F 94% 29.71 in 5.0 mi East 2.3 mph - N/A   Partly Cloudy
8:30 PM 78.8 °F - 77.0 °F 94% 29.74 in 5.0 mi ESE 2.3 mph - N/A   Partly Cloudy
9:00 PM 78.8 °F - 77.0 °F 94% 29.74 in 5.0 mi South 2.3 mph - N/A   Partly Cloudy
9:30 PM 78.8 °F - 77.0 °F 94% 29.74 in 5.0 mi ESE 1.2 mph - N/A   Partly Cloudy
10:00 PM 78.8 °F - 77.0 °F 94% 29.74 in 5.0 mi ESE 3.5 mph - N/A   Partly Cloudy
10:30 PM 78.8 °F - 77.0 °F 94% 29.74 in 5.0 mi East 2.3 mph - N/A   Partly Cloudy
11:00 PM 78 °F - 77 °F 94% 29.75 in 5 mi Calm Calm - -   Scattered Clouds
11:00 PM 78.8 °F - 77.0 °F 94% 29.74 in 5.0 mi Calm Calm - N/A   Partly Cloudy
11:30 PM 77.0 °F - 77.0 °F 100% 29.74 in 5.0 mi ENE 4.6 mph - N/A   Partly Cloudy